Time,TemperatureF,DewpointF,PressureIn,WindDirection,WindDirectionDegrees,WindSpeedMPH,WindSpeedGustMPH,Humidity,HourlyPrecipIn,Conditions,Clouds,dailyrainin,SoftwareType,DateUTC
2013-09-21 00:13:00,45.0,35.0,29.97,NW,304,0.0,1.0,68,0.00,,,0.00,,2013-09-21 05:13:00,
2013-09-21 00:23:00,45.0,35.0,29.98,NW,304,0.0,1.0,69,0.00,,,0.00,,2013-09-21 05:23:00,
2013-09-21 00:43:00,45.0,35.0,29.98,NW,304,0.0,1.0,69,0.00,,,0.00,,2013-09-21 05:43:00,
2013-09-21 00:52:00,45.0,35.0,29.98,NW,304,0.0,2.0,68,0.00,,,0.00,,2013-09-21 05:52:00,
2013-09-21 01:12:00,44.0,34.0,29.98,NW,304,0.0,1.0,69,0.00,,,0.00,,2013-09-21 06:12:00,
2013-09-21 01:22:00,45.0,35.0,29.98,NW,304,0.0,1.0,69,0.00,,,0.00,,2013-09-21 06:22:00,
2013-09-21 01:42:00,44.0,34.0,29.98,NW,304,0.0,2.0,68,0.00,,,0.00,,2013-09-21 06:42:00,
2013-09-21 01:52:00,44.0,34.0,29.98,NW,304,0.0,1.0,69,0.00,,,0.00,,2013-09-21 06:52:00,
2013-09-21 02:11:00,43.0,34.0,29.98,WNW,303,0.0,1.0,70,0.00,,,0.00,,2013-09-21 07:11:00,
2013-09-21 02:22:00,43.0,34.0,29.99,WNW,303,0.0,2.0,71,0.00,,,0.00,,2013-09-21 07:22:00,
2013-09-21 02:42:00,43.0,34.0,29.99,NW,304,0.0,2.0,70,0.00,,,0.00,,2013-09-21 07:42:00,
2013-09-21 02:52:00,43.0,34.0,29.99,NW,304,0.0,2.0,69,0.00,,,0.00,,2013-09-21 07:52:00,
2013-09-21 03:13:00,43.0,34.0,29.99,NW,304,0.0,1.0,69,0.00,,,0.00,,2013-09-21 08:13:00,
2013-09-21 03:22:00,43.0,34.0,29.99,NW,304,0.0,0.0,70,0.00,,,0.00,,2013-09-21 08:22:00,
2013-09-21 03:42:00,43.0,33.0,29.99,NW,304,1.0,3.0,67,0.00,,,0.00,,2013-09-21 08:42:00,
2013-09-21 03:52:00,42.0,32.0,29.98,WNW,300,0.0,1.0,68,0.00,,,0.00,,2013-09-21 08:52:00,
2013-09-21 04:11:00,42.0,33.0,29.98,WNW,300,0.0,2.0,69,0.00,,,0.00,,2013-09-21 09:11:00,
2013-09-21 04:22:00,42.0,33.0,29.98,WNW,300,0.0,1.0,70,0.00,,,0.00,,2013-09-21 09:22:00,
2013-09-21 04:43:00,42.0,33.0,29.98,WNW,300,0.0,1.0,70,0.00,,,0.00,,2013-09-21 09:43:00,
2013-09-21 04:53:00,42.0,32.0,29.98,WNW,299,0.0,2.0,67,0.00,,,0.00,,2013-09-21 09:53:00,
2013-09-21 05:12:00,42.0,31.0,29.98,WNW,299,0.0,2.0,66,0.00,,,0.00,,2013-09-21 10:12:00,
2013-09-21 05:23:00,42.0,32.0,29.98,WNW,299,0.0,2.0,68,0.00,,,0.00,,2013-09-21 10:23:00,
2013-09-21 05:42:00,42.0,33.0,29.98,WNW,299,0.0,1.0,70,0.00,,,0.00,,2013-09-21 10:42:00,
2013-09-21 05:52:00,41.0,32.0,29.99,WNW,299,0.0,1.0,71,0.00,,,0.00,,2013-09-21 10:52:00,
2013-09-21 06:11:00,41.0,32.0,29.99,WNW,299,0.0,0.0,70,0.00,,,0.00,,2013-09-21 11:11:00,
2013-09-21 06:23:00,41.0,32.0,29.99,WNW,299,0.0,2.0,69,0.00,,,0.00,,2013-09-21 11:23:00,
2013-09-21 06:52:00,41.0,31.0,29.99,NW,308,0.0,2.0,68,0.00,,,0.00,,2013-09-21 11:52:00,
2013-09-21 07:12:00,41.0,32.0,29.99,NW,309,0.0,3.0,70,0.00,,,0.00,,2013-09-21 12:12:00,
2013-09-21 07:21:00,41.0,31.0,29.99,NW,309,0.0,1.0,68,0.00,,,0.00,,2013-09-21 12:21:00,
2013-09-21 07:42:00,40.0,32.0,30.01,NW,309,0.0,2.0,72,0.00,,,0.00,,2013-09-21 12:42:00,
2013-09-21 07:52:00,39.0,31.0,30.01,NW,309,0.0,1.0,73,0.00,,,0.00,,2013-09-21 12:52:00,
2013-09-21 08:11:00,40.0,32.0,30.01,NW,309,0.0,1.0,74,0.00,,,0.00,,2013-09-21 13:11:00,
2013-09-21 08:21:00,40.0,32.0,30.01,NW,309,0.0,1.0,73,0.00,,,0.00,,2013-09-21 13:21:00,
2013-09-21 08:42:00,41.0,33.0,30.01,NW,309,0.0,1.0,73,0.00,,,0.00,,2013-09-21 13:42:00,
2013-09-21 08:52:00,43.0,34.0,30.01,NW,309,0.0,1.0,71,0.00,,,0.00,,2013-09-21 13:52:00,
2013-09-21 09:11:00,44.0,35.0,30.01,NW,309,0.0,2.0,71,0.00,,,0.00,,2013-09-21 14:11:00,
2013-09-21 09:22:00,45.0,36.0,30.01,NW,309,0.0,2.0,70,0.00,,,0.00,,2013-09-21 14:22:00,
2013-09-21 09:42:00,49.0,37.0,30.01,North,5,0.0,2.0,64,0.00,,,0.00,,2013-09-21 14:42:00,
2013-09-21 09:52:00,50.0,37.0,30.01,East,83,2.0,5.0,61,0.00,,,0.00,,2013-09-21 14:52:00,
2013-09-21 10:12:00,51.0,38.0,30.01,SE,142,1.0,5.0,61,0.00,,,0.00,,2013-09-21 15:12:00,
2013-09-21 10:22:00,52.0,38.0,30.01,East,101,1.0,3.0,58,0.00,,,0.00,,2013-09-21 15:22:00,
2013-09-21 12:52:00,60.0,46.0,29.98,South,190,3.0,8.0,60,0.00,,,0.00,,2013-09-21 17:52:00,
2013-09-21 13:12:00,60.0,45.0,29.98,SSE,164,1.0,7.0,58,0.00,,,0.00,,2013-09-21 18:12:00,
2013-09-21 13:22:00,61.0,46.0,29.97,SE,131,1.0,4.0,57,0.00,,,0.00,,2013-09-21 18:22:00,
2013-09-21 13:42:00,61.0,46.0,29.96,East,83,1.0,8.0,57,0.00,,,0.00,,2013-09-21 18:42:00,
2013-09-21 13:52:00,62.0,46.0,29.95,SE,144,2.0,9.0,55,0.00,,,0.00,,2013-09-21 18:52:00,
2013-09-21 14:11:00,62.0,45.0,29.94,East,91,4.0,7.0,53,0.00,,,0.00,,2013-09-21 19:11:00,
2013-09-21 14:21:00,62.0,46.0,29.93,SSE,153,3.0,10.0,55,0.00,,,0.00,,2013-09-21 19:21:00,
2013-09-21 14:42:00,63.0,45.0,29.93,ESE,103,2.0,7.0,51,0.00,,,0.00,,2013-09-21 19:42:00,
2013-09-21 14:52:00,64.0,45.0,29.92,East,84,2.0,7.0,50,0.00,,,0.00,,2013-09-21 19:52:00,
2013-09-21 15:12:00,64.0,45.0,29.92,ESE,108,1.0,6.0,51,0.00,,,0.00,,2013-09-21 20:12:00,
2013-09-21 15:22:00,65.0,46.0,29.91,ESE,121,2.0,9.0,51,0.00,,,0.00,,2013-09-21 20:22:00,
2013-09-21 15:42:00,65.0,46.0,29.90,ESE,107,1.0,7.0,51,0.00,,,0.00,,2013-09-21 20:42:00,
2013-09-21 15:52:00,65.0,44.0,29.90,East,88,3.0,10.0,47,0.00,,,0.00,,2013-09-21 20:52:00,
2013-09-21 16:12:00,66.0,46.0,29.89,SSE,153,3.0,9.0,48,0.00,,,0.00,,2013-09-21 21:12:00,
2013-09-21 16:22:00,66.0,46.0,29.88,ESE,116,2.0,12.0,48,0.00,,,0.00,,2013-09-21 21:22:00,
2013-09-21 16:44:00,66.0,46.0,29.88,SSE,159,5.0,8.0,49,0.00,,,0.00,,2013-09-21 21:44:00,
2013-09-21 16:54:00,66.0,46.0,29.87,ESE,103,1.0,12.0,49,0.00,,,0.00,,2013-09-21 21:54:00,
2013-09-21 17:13:00,66.0,46.0,29.86,ESE,119,1.0,9.0,49,0.00,,,0.00,,2013-09-21 22:13:00,
2013-09-21 17:23:00,66.0,45.0,29.86,East,82,5.0,11.0,47,0.00,,,0.00,,2013-09-21 22:23:00,
2013-09-21 17:43:00,67.0,47.0,29.86,SE,127,1.0,8.0,48,0.00,,,0.00,,2013-09-21 22:43:00,
2013-09-21 17:53:00,66.0,45.0,29.86,East,99,1.0,11.0,47,0.00,,,0.00,,2013-09-21 22:53:00,
2013-09-21 18:13:00,66.0,45.0,29.85,ENE,74,3.0,7.0,47,0.00,,,0.00,,2013-09-21 23:13:00,
2013-09-21 18:23:00,65.0,45.0,29.85,South,169,3.0,11.0,48,0.00,,,0.00,,2013-09-21 23:23:00,
2013-09-21 18:42:00,65.0,45.0,29.85,ESE,116,2.0,8.0,49,0.00,,,0.00,,2013-09-21 23:42:00,
2013-09-21 18:53:00,64.0,45.0,29.84,ENE,73,2.0,8.0,50,0.00,,,0.00,,2013-09-21 23:53:00,
2013-09-21 19:12:00,63.0,45.0,29.84,East,86,0.0,6.0,52,0.00,,,0.00,,2013-09-22 00:12:00,
2013-09-21 19:22:00,62.0,46.0,29.84,SE,126,0.0,3.0,55,0.00,,,0.00,,2013-09-22 00:22:00,
2013-09-21 19:43:00,60.0,46.0,29.84,East,88,0.0,3.0,60,0.00,,,0.00,,2013-09-22 00:43:00,
2013-09-21 19:52:00,58.0,44.0,29.84,East,79,2.0,5.0,60,0.00,,,0.00,,2013-09-22 00:52:00,
2013-09-21 22:54:00,51.0,38.0,29.86,SSE,147,0.0,3.0,60,0.00,,,0.00,,2013-09-22 03:54:00,
2013-09-21 23:02:00,-999.0,-99.9,29.86,SSE,147,0.0,2.0,-999,-99.99,,,-99.99,,2013-09-22 04:02:00,
2013-09-21 23:14:00,51.0,38.0,29.86,SSE,147,0.0,2.0,61,0.00,,,0.00,,2013-09-22 04:14:00,
2013-09-21 23:23:00,51.0,38.0,29.86,SSE,147,0.0,4.0,62,0.00,,,0.00,,2013-09-22 04:23:00,
2013-09-21 23:44:00,50.0,38.0,29.86,SSE,147,0.0,1.0,63,0.00,,,0.00,,2013-09-22 04:44:00,